CAPE
0 0 0 0 0 0 0 0 0 0 0 0 0 0 0 0 0 0 0 0 0 0 0 0 0 0 0 0 0 0 0 186 1965 1835 1768 1579 1350 1659 1387 1009 828 1078 464 328
0 0 0 0 0 0 0 0 0 0 0 3 0 0 0 0 0 0 0 0 0 0 0 0 0 0 0 0 0 0 0 0 1026 1891 2068 1983 1640 1775 1714 1226 949 980 687 611
0 0 0 0 0 0 0 0 0 0 0 0 25 3 19 13 11 11 19 14 0 0 0 0 0 0 0 0 0 0 0 0 117 1516 1943 1997 1722 1672 1449 1268 1081 1054 915 761
0 0 0 0 0 0 0 0 0 0 0 0 8 12 55 22 61 49 0 0 0 0 0 0 0 0 0 0 0 0 0 151 647 1279 1676 1687 1613 1570 1398 1265 1334 1058 998 795
0 0 0 0 0 0 0 0 0 0 3 10 0 48 89 88 1 6 0 23 15 6 1 0 0 0 0 0 0 0 53 461 826 1186 1828 1796 1692 1592 1537 1466 1209 1010 1040 907
0 0 0 0 0 0 3 4 0 1 10 15 20 0 67 80 54 27 33 10 13 0 32 15 0 0 0 0 0 0 83 477 984 1396 1684 1929 1712 1528 1331 1136 1047 1189 1043 856
0 0 0 0 0 8 40 10 1 1 58 33 41 0 5 72 41 2 0 1 31 42 52 44 18 3 0 0 0 0 38 432 765 1018 1450 1790 1688 1690 1225 1078 1110 1251 1088 743
0 0 0 1 14 33 13 35 34 8 24 33 0 3 83 53 14 3 0 30 1 53 103 98 99 36 26 0 0 0 0 118 615 811 1083 1404 1599 1508 1315 1462 1048 1210 1117 885
0 0 0 0 11 19 0 37 44 33 5 16 16 39 28 2 0 37 55 45 56 43 77 102 116 68 92 83 8 3 5 1 274 920 994 1098 1525 1455 1223 1420 1351 1004 1236 978
12 4 0 4 48 40 17 32 57 46 22 12 19 12 71 4 0 1 56 60 140 108 100 108 113 138 194 181 151 86 56 20 60 735 990 1000 1247 1513 1493 1466 1502 1165 1202 959
16 15 0 8 74 73 31 38 28 15 39 25 2 9 17 0 27 2 41 7 47 112 52 16 48 66 62 92 148 238 133 63 187 425 1009 856 1126 1446 1446 1274 1124 1106 1117 905
30 22 6 0 0 13 28 39 96 18 4 16 14 0 0 20 14 12 14 4 10 14 58 17 41 36 2 13 45 120 404 452 47 336 688 1054 934 1125 1466 1242 1062 787 752 727
8 10 1 2 7 33 32 34 23 30 23 0 21 0 1 4 7 18 14 0 2 18 1 4 22 31 19 1 0 3 64 126 280 63 470 905 1137 1062 1506 1226 1046 879 474 191
26 22 14 6 8 14 2 22 15 6 0 2 4 14 17 20 6 0 0 15 1 4 0 1 5 9 28 1 0 0 0 34 192 314 191 757 1155 1245 1298 1128 742 540 187 5
12 11 24 25 17 8 15 9 6 3 12 0 1 5 4 7 13 6 8 7 6 13 6 0 0 2 14 13 0 0 0 0 29 591 283 563 1268 1392 1535 960 207 50 2 3
13 2 17 16 21 41 9 0 10 16 3 4 14 1 1 5 3 11 19 17 17 1 0 1 6 0 1 12 0 0 0 0 10 193 570 458 1255 1188 1192 531 196 0 0 0
12 27 13 2 29 27 0 0 0 0 3 11 0 1 2 7 14 11 10 9 11 1 0 1 1 1 1 0 0 0 0 0 0 24 759 483 1030 791 641 322 51 0 0 0
31 20 21 13 22 15 23 7 3 10 2 0 2 3 4 2 1 4 1 5 1 0 0 1 2 2 1 2 1 0 0 0 0 18 764 802 890 568 251 66 1 2 1 1
20 33 14 20 18 11 13 23 9 13 0 0 1 0 1 3 3 1 1 1 0 0 0 3 4 5 1 0 2 0 0 0 0 2 712 998 636 367 93 4 2 1 3 2
34 27 23 14 17 17 3 0 2 3 0 2 1 1 2 1 4 0 0 1 3 1 1 2 3 3 4 4 2 1 0 0 0 19 915 856 565 413 14 3 3 2 3 2
19 19 17 14 21 27 31 24 2 6 1 0 2 2 2 4 3 1 1 3 1 1 2 2 2 3 0 4 1 6 0 0 0 99 1072 832 480 126 3 2 2 2 4 2
19 12 12 14 14 1 8 5 14 7 1 2 2 2 3 5 4 6 4 3 1 1 0 2 3 5 3 0 7 5 0 0 0 583 1323 430 165 3 3 3 3 4 3 5
10 24 11 44 15 20 46 49 0 2 2 1 1 2 4 4 4 4 3 2 0 2 5 4 5 0 0 4 13 2 0 0 0 1059 458 102 4 3 3 3 3 4 3 0
13 25 14 18 2 18 52 0 0 4 2 2 1 2 3 4 4 7 22 0 1 1 5 2 0 0 1 17 4 0 0 1 828 543 179 4 4 3 1 2 2 2 2 0
9 13 15 15 17 0 0 0 8 1 3 2 2 3 3 2 2 4 3 7 4 7 7 10 6 20 34 16 4 4 230 597 324 61 2 2 2 2 3 1 1 0 0 0
48 41 20 23 18 1 0 11 1 2 3 2 2 3 2 3 2 3 0 6 3 2 3 1 2 1 49 111 131 414 391 181 3 3 3 2 2 2 1 1 0 0 0 0
CIN
-0 -0 -0 -0 -0 -0 -0 -0 -0 -0 -0 -0 -0 -0 -0 -0 -0 -0 -0 -0 -0 -0 -0 -0 -0 -0 -0 -0 -0 -0 -0 -72 -0 -3 -2 -9 -5 -2 -1 -16 -16 -39 -105 -133
-0 -0 -0 -0 -0 -0 -0 -0 -0 -0 -0 -3 -0 -0 -0 -0 -0 -3 -0 -0 -0 -0 -0 -0 -0 -0 -0 -0 -0 -0 -0 -0 -12 -2 -3 -4 -12 -11 -1 -5 -7 -30 -64 -81
-0 -0 -0 -0 -0 -0 -0 -0 -0 -0 -0 -0 -6 -4 -8 -14 -17 -19 -11 -7 -0 -0 -0 -0 -0 -0 -0 -0 -0 -0 -0 -0 -83 -4 -3 -1 -6 -5 -11 -4 -12 -45 -52 -62
-0 -0 -0 -0 -0 -0 -0 -0 -0 -0 -6 -0 -3 -5 -6 -13 -9 -9 -0 -0 -0 -0 -0 -0 -0 -0 -0 -0 -0 -0 -0 -44 -26 -6 -3 -0 -0 -0 -8 -10 -20 -47 -42 -68
-0 -0 -0 -0 -0 -0 -0 -0 -0 -0 -6 -5 -0 -13 -4 -8 -118 -47 -2 -10 -3 -5 -5 -0 -0 -0 -0 -0 -0 -0 -31 -33 -22 -23 -0 -0 -0 -5 -11 -3 -5 -27 -35 -58
-0 -0 -0 -0 -0 -0 -2 -1 -0 -1 -11 -6 -12 -0 -10 -7 -22 -14 -20 -17 -4 -0 -6 -6 -0 -0 -0 -0 -0 -0 -35 -20 -18 -1 -2 -0 -0 -8 -3 -16 -3 -4 -33 -53
-0 -0 -0 -0 -0 -5 -6 -4 -2 -1 -3 -5 -14 -0 -3 -21 -13 -57 -30 -2 -4 -4 -4 -4 -4 -2 -0 -0 -0 -0 -15 -7 -1 -1 -1 -0 -1 -3 -3 -18 -5 -2 -9 -38
-0 -0 -0 -1 -6 -3 -3 -4 -3 -0 -3 -4 -2 -29 -5 -22 -38 -85 -2 -22 -11 -2 -7 -3 -3 -3 -3 -0 -0 -0 -0 -6 -2 -2 -2 -4 -1 -1 -2 -5 -17 -5 -0 -8
-0 -0 -0 -0 -6 -5 -0 -4 -3 -3 -4 -3 -18 -18 -217 -31 -0 -22 -5 -12 -5 -1 -2 -9 -4 -7 -13 -5 -39 -61 -52 -10 -4 -1 -1 -0 -2 -2 -4 -5 -18 -3 -1 -3
-1 -1 -2 -1 -7 -14 -85 -13 -5 -3 -1 -2 -7 -12 -30 -42 -0 -60 -10 -19 -2 -3 -2 -6 -6 -13 -27 -15 -53 -87 -78 -90 -54 -3 -2 -1 -4 -0 -1 -3 -2 -26 -9 -5
-2 -4 -0 -4 -4 -7 -8 -7 -23 -15 -3 -5 -3 -5 -65 -0 -5 -41 -14 -60 -49 -3 -4 -20 -32 -50 -55 -47 -21 -3 -40 -113 -61 -2 -3 -1 -1 -2 -0 -0 -10 -15 -14 -4
-1 -0 -1 -0 -3 -10 -13 -11 -5 -24 -2 -1 -1 -0 -0 -5 -6 -3 -4 -44 -6 -45 -8 -6 -7 -2 -8 -133 -104 -52 -9 -13 -154 -3 -2 -1 -1 -7 -5 -2 -7 -0 -15 -4
-1 -0 -1 -3 -5 -5 -6 -4 -5 -3 -5 -0 -0 -0 -2 -6 -4 -6 -6 -1 -10 -7 -2 -34 -13 -4 -2 -0 -0 -159 -124 -106 -48 -98 -1 -1 -2 -3 -1 -3 -1 -0 -6 -55
-1 -0 -0 -0 -2 -3 -4 -4 -5 -8 -0 -7 -1 -3 -2 -3 -5 -5 -0 -3 -1 -2 -3 -5 -4 -5 -7 -1 -0 -0 -31 -167 -85 -36 -15 -2 -2 -1 -6 -0 -16 -36 -61 -0
-2 -0 -1 -2 -4 -3 -4 -4 -8 -12 -8 -6 -0 -3 -2 -4 -8 -3 -1 -1 -4 -4 -5 -5 -0 -4 -5 -2 -0 -0 -0 -32 -194 -1 -16 -1 -1 -3 -0 -14 -197 -334 -0 -0
-2 -0 -1 -2 -4 -5 -6 -7 -4 -4 -3 -3 -1 -0 -8 -2 -4 -1 -1 -2 -1 -2 -3 -3 -7 -0 -3 -2 -0 -0 -0 -0 -200 -95 -2 -3 -10 -63 -15 -111 -184 -4 -0 -0
-1 -1 -2 -0 -2 -4 -0 -0 -0 -0 -20 -16 -1 -2 -4 -1 -0 -0 -1 -2 -1 -2 -0 -3 -4 -0 -0 -2 -0 -0 -0 -0 -0 -219 -1 -2 -26 -90 -103 -179 -265 -0 -0 -0
-2 -2 -0 -0 -3 -2 -5 -22 -29 -4 -5 -1 -1 -0 -0 -0 -0 -0 -2 -1 -1 -0 -0 -2 -2 -1 -1 -2 -0 -0 -0 -0 -0 -261 -14 -2 -67 -118 -166 -267 -10 -0 -0 -0
-4 -1 -1 -0 -1 -3 -4 -1 -6 -1 -0 -0 -0 -0 -0 -0 -0 -0 -0 -0 -0 -0 -0 -0 -0 -1 -1 -0 -2 -0 -0 -0 -0 -283 -25 -13 -106 -153 -219 -121 -0 -0 -0 -0
-2 -3 -1 -1 -1 -0 -6 -0 -14 -29 -0 -0 -0 -0 -0 -0 -0 -0 -0 -0 -0 -0 -3 -1 -0 -1 -1 -2 -1 -2 -0 -0 -0 -297 -2 -9 -96 -131 -150 -0 -0 -0 -0 -0
-2 -1 -3 -4 -1 -2 -2 -19 -27 -1 -2 -0 -0 -0 -0 -0 -0 -0 -0 -0 -0 -0 -0 -0 -0 -1 -0 -2 -1 -1 -0 -0 -0 -151 -1 -13 -92 -178 -0 -0 -0 -0 -0 -0
-0 -1 -1 -2 -1 -0 -13 -6 -5 -1 -0 -0 -0 -0 -0 -0 -0 -0 -0 -0 -0 -0 -0 -0 -0 -0 -1 -2 -1 -1 -0 -0 -0 -10 -0 -61 -168 -0 -0 -0 -0 -0 -0 -0
-2 -2 -3 -1 -1 -4 -1 -2 -0 -0 -0 -0 -0 -0 -0 -0 -0 -0 -0 -5 -0 -0 -0 -0 -0 -0 -0 -1 -2 -1 -0 -0 -0 -0 -74 -173 -63 -0 -0 -0 -0 -0 -0 -0
-3 -1 -1 -0 -4 -3 -5 -0 -0 -0 -0 -0 -0 -0 -0 -0 -0 -6 -2 -0 -1 -0 -1 -0 -0 -0 -2 -2 -1 -0 -0 -4 -1 -42 -145 -100 -0 -0 -0 -0 -0 -0 -0 -0
-1 -0 -1 -1 -2 -0 -0 -0 -0 -0 -0 -0 -0 -0 -0 -0 -0 -0 -3 -2 -2 -0 -1 -0 -4 -2 -1 -1 -1 -1 -18 -7 -65 -196 -0 -0 -0 -0 -0 -0 -0 -0 -0 -0
-1 -0 -0 -0 -0 -0 -0 -0 -0 -0 -0 -0 -0 -0 -0 -0 -0 -0 -0 -2 -0 -0 -0 -0 -0 -0 -29 -2 -11 -5 -47 -150 -16 -0 -0 -0 -0 -0 -0 -0 -0 -0 -0 -0
Wind_Speed
25 27 26 32 32 32 33 35 42 39 33 36 44 53 55 50 51 53 51 50 51 50 44 40 39 37 35 34 32 31 35 35 33 32 31 30 30 26 23 20 18 14 15 13
28 27 27 30 32 30 31 35 38 37 30 36 45 54 53 50 48 43 47 50 50 49 45 42 40 36 38 35 31 31 33 35 35 35 33 31 30 29 25 22 20 17 17 14
33 29 26 29 32 35 33 35 39 40 38 38 39 52 47 44 40 36 40 37 41 47 46 43 41 39 37 36 30 31 31 33 35 36 34 32 32 33 31 24 21 20 17 16
26 21 27 34 35 34 37 35 37 35 37 43 40 54 46 38 34 28 27 31 36 36 39 42 40 40 38 37 32 29 30 31 32 35 35 35 34 32 31 27 23 21 21 18
25 29 32 32 32 33 35 30 34 31 31 49 22 30 37 34 29 26 28 19 24 29 33 35 38 39 35 35 35 27 27 29 31 33 33 35 34 33 31 29 25 23 22 20
22 22 26 26 28 27 30 34 31 29 28 25 22 14 23 32 28 12 17 20 21 29 29 25 27 31 31 32 31 28 25 27 29 31 33 34 36 34 34 33 27 24 22 22
32 27 26 21 28 31 34 35 36 37 28 36 31 41 39 33 27 28 22 18 27 22 23 20 24 25 28 30 30 30 25 25 27 31 32 34 36 36 34 34 30 26 23 23
31 36 27 25 34 35 30 28 26 37 39 41 40 38 29 18 23 21 17 19 9 17 21 19 20 24 27 28 30 31 29 25 25 29 31 33 36 35 37 37 34 29 25 22
36 25 33 31 28 22 27 17 13 10 29 30 30 23 33 21 24 23 22 20 18 11 17 20 21 21 22 22 29 30 32 32 27 26 28 32 34 38 36 37 39 37 26 21
28 35 29 27 25 22 12 19 12 6 30 33 33 36 25 26 11 5 23 24 19 17 16 16 19 17 23 24 25 27 28 35 37 30 25 28 31 35 38 37 39 39 33 23
29 27 30 29 27 19 21 4 16 19 26 30 33 31 30 40 34 33 32 21 32 21 26 23 21 19 21 22 24 24 29 36 38 36 27 25 29 31 33 33 31 32 28 24
26 27 31 24 15 16 4 19 13 28 29 32 36 38 39 27 38 39 37 38 34 32 31 33 32 23 23 24 24 24 27 29 35 37 35 27 32 31 32 32 31 33 23 24
26 25 31 18 21 23 35 37 38 34 33 32 30 35 43 45 45 42 42 43 44 43 41 39 36 33 28 27 26 27 26 28 31 35 36 33 29 32 31 30 27 28 24 20
21 17 15 11 25 30 37 32 24 21 12 28 27 37 40 35 48 49 50 50 49 47 46 45 43 41 34 30 29 29 30 28 29 34 37 35 32 29 26 26 22 22 19 20
18 20 10 14 20 26 28 26 25 31 25 33 33 40 32 53 54 53 52 49 48 49 50 51 48 47 42 34 34 33 31 30 29 31 36 35 28 23 20 18 18 17 16 21
17 20 10 20 13 20 29 30 30 16 31 16 25 36 27 50 55 50 47 49 50 48 49 49 50 52 48 42 42 38 35 33 29 30 31 33 24 20 17 14 16 20 17 24
15 16 10 25 37 28 28 34 28 22 26 31 29 42 57 56 45 46 51 56 56 56 54 52 51 51 49 49 46 43 39 34 33 31 29 31 21 18 18 16 13 12 24 23
14 15 10 31 35 23 29 38 25 32 23 32 30 34 42 54 65 46 39 59 60 60 58 54 53 51 50 47 46 42 38 36 34 31 30 26 19 16 16 15 13 10 14 16
9 15 35 36 32 35 38 34 40 46 45 44 33 54 34 30 29 31 29 28 26 48 48 44 44 46 49 50 43 39 37 39 35 34 31 20 17 15 15 14 13 10 15 12
15 12 18 35 33 38 38 36 45 53 37 30 57 42 47 41 34 31 44 31 28 41 46 49 45 43 42 46 44 40 40 41 37 33 30 19 17 15 16 14 13 12 11 14
21 18 33 34 33 15 14 47 44 40 34 32 33 24 50 21 17 30 33 29 18 22 40 48 49 45 38 39 45 43 43 42 36 33 22 17 19 17 17 15 14 12 17 12
20 20 33 33 31 29 45 42 42 35 34 29 25 23 20 23 23 22 25 23 17 18 33 26 36 45 43 40 42 46 49 42 36 32 19 18 20 19 18 17 14 14 18 16
17 23 35 26 22 31 30 22 33 29 26 24 21 21 19 18 18 18 16 2 6 13 12 19 33 37 40 43 43 47 46 42 37 24 20 20 21 20 20 18 17 17 21 18
16 23 34 34 13 35 38 44 26 20 22 23 15 12 12 12 14 8 4 14 13 18 23 28 30 33 35 28 40 43 38 38 27 23 21 21 22 21 19 17 16 20 18 18
10 30 27 31 34 43 39 32 25 29 21 23 13 9 7 5 7 11 10 5 16 18 18 20 22 24 28 32 34 32 29 25 24 23 22 22 22 21 19 16 16 21 27 24
21 31 33 35 40 40 36 27 31 23 24 23 14 14 12 2 6 10 14 12 9 16 9 12 12 12 21 35 34 25 22 24 23 23 23 23 24 21 20 18 18 19 19 16
Wind_Direction
346 339 336 335 336 334 331 327 321 322 325 321 308 297 293 295 288 281 277 275 272 268 270 267 265 264 262 261 261 254 250 249 248 243 241 241 244 244 244 244 245 242 244 236
341 335 344 338 335 333 330 326 323 325 329 324 312 299 296 294 290 286 279 274 271 267 266 263 262 261 259 259 259 256 251 247 247 245 244 242 241 244 246 244 243 245 244 239
335 333 343 339 335 332 331 329 329 326 327 319 315 299 300 299 296 293 286 281 276 267 263 260 258 257 257 255 255 255 252 249 246 246 244 244 245 245 247 244 241 246 242 243
342 349 341 337 333 335 329 335 331 328 326 317 316 296 296 297 302 304 297 286 279 273 265 261 256 254 253 253 253 255 252 250 247 246 244 241 242 241 242 244 244 243 244 243
336 335 334 334 336 339 330 335 330 324 318 299 264 304 301 295 320 322 320 314 299 286 271 263 256 253 251 250 251 252 251 251 249 244 244 242 242 245 245 244 242 242 242 243
335 341 330 335 341 339 333 327 326 325 264 268 244 311 330 298 316 337 335 322 317 294 281 271 258 253 249 249 247 250 249 251 250 245 244 242 243 245 245 244 244 239 241 241
341 342 353 351 338 336 338 336 332 326 310 278 288 301 301 314 321 324 332 335 302 308 288 281 268 258 254 249 249 249 250 250 251 249 246 245 244 243 246 243 241 240 241 241
341 338 345 351 336 331 337 340 340 312 289 284 284 276 317 357 357 355 349 338 336 316 292 287 280 264 258 255 254 252 254 253 252 251 249 247 246 246 245 245 243 243 243 242
342 344 336 334 333 339 333 331 335 284 259 256 255 241 312 348 348 342 345 338 335 330 308 291 283 280 273 268 255 256 253 254 253 251 251 252 248 246 245 245 244 250 238 240
346 329 344 344 345 332 287 337 335 287 311 295 275 293 319 333 326 238 340 330 317 311 306 296 287 290 271 270 266 262 257 247 245 248 251 254 252 249 247 247 245 245 249 239
342 339 336 340 339 334 280 311 349 320 251 291 265 287 310 302 313 315 321 334 279 291 281 287 284 290 280 274 270 268 256 249 245 245 249 253 251 251 249 246 244 239 240 234
357 348 338 340 278 256 282 339 348 269 264 259 265 260 278 306 306 309 307 289 291 283 280 277 274 278 277 274 272 269 264 257 248 245 245 249 249 248 246 244 243 241 234 235
358 355 347 358 10 337 310 280 276 266 262 257 257 259 285 284 291 299 299 289 277 274 274 271 271 267 271 272 271 268 267 262 255 248 244 246 248 247 245 243 241 239 235 229
347 349 345 292 274 282 283 270 258 255 278 261 258 267 274 301 300 296 289 282 274 269 264 265 266 263 268 271 273 268 264 264 261 250 243 242 243 247 249 241 245 237 231 232
3 348 325 324 277 277 271 267 265 265 263 269 273 275 275 298 286 289 286 283 279 271 265 260 260 260 266 271 269 266 265 263 262 257 244 242 244 246 247 235 236 236 244 250
359 345 298 277 290 275 275 275 269 340 329 318 324 279 290 311 301 304 300 285 278 276 273 268 261 257 255 260 256 258 257 257 259 258 252 245 242 240 230 224 228 236 247 242
329 331 300 274 298 283 276 338 340 334 335 332 311 284 303 310 316 311 304 287 274 273 269 267 265 258 255 251 251 249 251 253 252 255 255 246 233 234 228 224 226 242 248 245
339 339 323 275 288 273 335 334 349 336 332 329 314 323 327 314 303 311 304 275 270 270 267 267 262 260 256 255 249 247 248 248 249 252 252 246 229 227 220 216 212 221 232 218
353 350 309 303 281 289 317 336 335 329 296 333 346 331 313 321 290 274 307 305 293 279 259 272 265 259 255 249 248 246 245 244 246 244 245 235 221 213 205 203 195 185 212 214
360 350 334 280 278 296 305 340 333 334 339 353 334 338 333 338 335 279 292 321 307 287 276 263 255 257 253 243 241 239 238 237 240 241 241 227 212 198 195 185 183 184 189 202
349 345 275 283 278 285 324 320 342 347 340 328 323 328 324 321 304 286 283 271 269 250 263 234 239 245 246 242 234 231 229 230 234 236 234 213 208 196 181 173 176 168 194 191
351 353 288 295 283 308 315 313 347 345 343 320 310 302 306 291 297 297 288 278 253 234 234 199 244 228 231 237 228 225 221 225 229 231 214 196 198 189 183 169 169 168 183 168
353 349 284 331 268 282 291 344 350 347 311 319 304 297 292 295 305 304 297 247 218 264 292 244 214 217 217 219 218 216 218 220 224 212 197 183 190 189 182 170 158 175 187 161
337 293 284 280 297 290 297 326 306 325 309 306 304 317 300 293 298 312 326 93 120 133 144 161 180 197 208 216 207 209 214 215 208 196 188 183 182 184 184 183 175 185 172 151
310 270 268 275 286 301 301 300 305 305 312 300 298 305 311 321 291 288 296 158 125 139 158 173 190 200 200 199 202 206 209 193 188 186 183 180 181 180 179 183 187 192 197 198
341 297 293 289 304 303 297 300 304 305 309 301 302 289 289 327 55 271 289 307 32 148 192 187 192 195 192 185 195 197 187 180 179 181 181 181 181 177 173 164 180 186 188 168